FW2125 Weather Reports


time (UTC)temp
F
wind
direction
speed
knots
gust
knots
rain 1hr
in
rain 24hr
in
rain mn
in
humidity
%
barometer
mb
20260510060829 70 0.0 0.0 0.00 0.03 0.00 97 1013.2
20260510055907 70 0.0 0.0 0.00 0.03 0.00 96 1013.1
20260510054825 70 0.0 0.0 0.00 0.03 0.00 96 1013.2
20260510053905 70 0.0 0.0 0.00 0.03 0.00 97 1013.2
20260510052820 70 0.0 0.0 0.00 0.03 0.00 98 1013.2
20260510051856 69 0.0 0.0 0.00 0.03 0.00 99 1013.2
20260510050846 69 0.0 0.0 0.00 0.03 0.00 99 1013.2
20260510045833 69 0.0 0.0 0.00 0.03 0.03 99 1013.1
20260510044825 69 0.0 0.0 0.00 0.03 0.03 99 1013.1
20260510043847 69 0.0 0.0 0.00 0.03 0.03 99 1012.9
20260510042825 70 0.0 0.0 0.00 0.03 0.03 99 1012.9
20260510041823 70 0.0 0.0 0.00 0.03 0.03 99 1012.8
20260510040821 70 0.0 0.0 0.00 0.03 0.03 98 1012.8
20260510035833 71 0.0 0.0 0.00 0.03 0.03 97 1012.9
20260510034825 71 0.0 0.0 0.00 0.03 0.03 96 1012.8
20260510033825 72 0.0 0.0 0.00 0.03 0.03 94 1012.7
20260510032825 73 0.0 0.0 0.00 0.03 0.03 94 1012.7
20260510031827 73 0.0 0.0 0.00 0.03 0.03 93 1012.6
20260510030906 74 0.0 0.0 0.00 0.03 0.03 92 1012.4
20260510025823 74 0.0 0.0 0.00 0.03 0.03 91 1012.2
20260510024821 74 0.0 0.0 0.00 0.03 0.03 89 1012.1
20260510023825 74 0.0 0.0 0.00 0.03 0.03 90 1012.1
20260510022825 73 0.0 0.0 0.00 0.03 0.03 86 1012.0
20260510021833 74 0.0 0.0 0.00 0.03 0.03 86 1011.8
20260510020910 75 0.0 0.0 0.00 0.03 0.03 82 1011.7
20260510015828 76 0.0 0.0 0.00 0.03 0.03 81 1011.5
20260510014826 77 0.0 0.0 0.00 0.03 0.03 79 1011.4
20260510013825 78 0.0 0.0 0.00 0.03 0.03 75 1011.3
20260510012822 79 0.0 0.0 0.00 0.03 0.03 72 1011.2
20260510011819 81 0.0 0.0 0.00 0.03 0.03 70 1011.2
20260510010835 82 0.0 0.0 0.00 0.03 0.03 68 1011.1
20260510005853 82 0.0 0.0 0.00 0.03 0.03 66 1011.0
20260510004825 84 0.0 0.0 0.00 0.03 0.03 64 1011.0
20260510003825 86 0.0 0.0 0.00 0.03 0.03 60 1010.9
20260510002826 86 0.0 0.0 0.00 0.03 0.03 56 1010.9
20260510001824 87 0.0 0.0 0.00 0.03 0.03 50 1010.7
20260510000821 89 0.0 0.0 0.00 0.03 0.03 46 1010.6
20260509235819 90 0.0 0.0 0.00 0.03 0.03 44 1010.5
20260509234825 91 0.0 0.0 0.00 0.03 0.03 42 1010.4
20260509233825 91 0.0 0.0 0.00 0.03 0.03 43 1010.4
20260509232825 91 0.0 0.0 0.00 0.03 0.03 43 1010.3
20260509231829 90 0.0 0.0 0.00 0.03 0.03 49 1010.2
20260509230827 90 135 4.3 6.1 0.00 0.03 0.03 49 1010.2
20260509225844 91 0.0 0.9 0.00 0.03 0.03 51 1010.2
20260509224822 91 119 4.3 6.1 0.00 0.03 0.03 52 1010.3
20260509223819 91 113 0.9 4.3 0.00 0.03 0.03 50 1010.3
20260509222845 91 0.0 0.0 0.00 0.03 0.03 49 1010.2
20260509221833 93 0.0 0.0 0.00 0.03 0.03 46 1010.2
20260509220833 94 0.0 0.0 0.00 0.03 0.03 46 1010.2
20260509215828 92 0.0 0.0 0.00 0.03 0.03 48 1010.1
20260509214906 90 0.0 0.0 0.00 0.03 0.03 51 1010.1
20260509213825 88 135 4.3 4.3 0.00 0.03 0.03 52 1010.3
20260509212841 85 121 6.1 7.8 0.00 0.03 0.03 56 1010.6
20260509211819 86 134 10.4 13.0 0.00 0.03 0.03 56 1010.9
20260509210825 90 68 7.8 8.7 0.00 0.03 0.03 49 1011.2
20260509205825 103 0.0 0.0 0.00 0.03 0.03 41 1011.1
20260509204825 102 0.0 0.0 0.00 0.03 0.03 44 1010.7
20260509203828 97 0.0 0.0 0.00 0.03 0.03 47 1010.8
20260509202826 96 0.0 0.0 0.00 0.03 0.03 47 1010.8
20260509201826 96 0.0 0.0 0.00 0.03 0.03 49 1011.0
20260509200821 98 0.0 0.0 0.00 0.03 0.03 46 1011.2
20260509195819 99 0.0 0.9 0.00 0.03 0.03 49 1011.2
20260509194825 100 0.0 0.0 0.00 0.03 0.03 48 1011.3
20260509193826 98 326 1.7 3.5 0.00 0.03 0.03 49 1011.5
20260509192825 98 0.0 0.0 0.00 0.03 0.03 48 1011.6
20260509191845 95 0.0 0.0 0.00 0.03 0.03 54 1011.7
20260509190826 92 0.0 0.0 0.00 0.03 0.03 57 1011.9
20260509185824 92 0.0 0.0 0.00 0.03 0.03 56 1012.0
20260509184902 95 0.0 0.0 0.00 0.03 0.03 56 1012.2
20260509183819 93 0.0 0.0 0.00 0.03 0.03 57 1012.4
20260509182825 96 0.0 0.0 0.00 0.03 0.03 55 1012.5
20260509181826 96 0.0 0.0 0.00 0.03 0.03 55 1012.5
20260509180845 96 0.0 0.0 0.00 0.03 0.03 55 1012.7
20260509175829 97 0.0 0.0 0.00 0.03 0.03 55 1012.8
20260509174826 0 0.0 0.0 0.00 0.03 0.03
20260509173844 93 0.0 0.0 0.00 0.03 0.03 61 1013.1
20260509172822 92 0.0 0.0 0.00 0.03 0.03 64 1013.1
20260509171839 91 0.0 0.0 0.00 0.03 0.03 68 1013.3
20260509170825 90 0.0 0.0 0.00 0.03 0.03 69 1013.2
20260509165853 89 294 1.7 3.5 0.00 0.03 0.03 70 1013.2
20260509164831 87 0.0 0.0 0.00 0.03 0.03 73 1013.3
20260509163829 87 0.0 0.0 0.00 0.03 0.03 73 1013.3
20260509162827 87 0.0 0.0 0.00 0.03 0.03 74 1013.3
20260509161846 85 0.0 0.0 0.00 0.03 0.03 76 1013.3
20260509160822 84 0.0 0.0 0.00 0.03 0.03 81 1013.2
20260509155820 84 270 2.6 4.3 0.00 0.03 0.03 84 1013.3
20260509154836 82 0.0 0.0 0.00 0.03 0.03 85 1013.4
20260509153854 82 0.9 1.7 0.00 0.03 0.03 86 1013.6
20260509152905 80 0.0 0.0 0.00 0.03 0.03 90 1013.6
20260509151826 80 0.0 0.0 0.00 0.03 0.03 93 1013.7
20260509150827 76 158 3.5 4.3 0.00 0.03 0.03 99 1013.5
20260509145825 75 1.7 2.6 0.00 0.03 0.03 99 1013.5
20260509144823 75 129 1.7 3.5 0.00 0.03 0.03 99 1013.5
20260509143841 75 135 1.7 3.5 0.00 0.03 0.03 99 1013.1
20260509142826 74 0.0 0.0 0.00 0.03 0.03 99 1013.0
20260509141825 73 0.0 0.0 0.00 0.03 0.03 99 1012.9
20260509140826 72 0.0 0.0 0.00 0.03 0.03 99 1013.3
20260509135830 72 0.0 0.0 0.00 0.03 0.03 99 1013.1
20260509134827 72 0.0 0.0 0.00 0.03 0.03 99 1013.2
20260509133825 0 0.0 0.0 0.00 0.03 0.03
20260509132825 72 0.0 0.0 0.00 0.03 0.03 99 1013.2
20260509131821 72 0.0 0.0 0.00 0.03 0.03 99 1013.2
20260509130826 72 0.0 0.0 0.00 0.03 0.03 99 1013.2
20260509125915 72 0.0 0.0 0.00 0.03 0.03 99 1012.9
20260509124832 71 0.0 0.0 0.00 0.03 0.03 99 1012.9
20260509123830 71 0.0 0.0 0.00 0.03 0.03 99 1012.6
20260509122828 71 0.0 0.0 0.00 0.03 0.03 99 1012.4
20260509121826 71 0.0 0.0 0.00 0.03 0.03 99 1012.6
20260509120825 71 0.0 0.0 0.01 0.03 0.03 99 1012.7
20260509115821 71 0.0 0.0 0.01 0.03 0.03 99 1012.8
20260509114837 71 0.0 0.0 0.01 0.03 0.03 99 1013.0
20260509113835 71 0.0 0.0 0.01 0.03 0.03 99 1013.1
20260509112826 71 0.0 0.0 0.01 0.03 0.03 99 1013.2
20260509111846 71 0.0 0.0 0.01 0.03 0.03 99 1013.6
20260509110848 71 0.0 0.0 0.00 0.02 0.02 99 1013.5
20260509105845 0 0.0 0.0 0.00 0.02 0.02
20260509104824 71 0.0 0.0 0.00 0.02 0.02 99 1013.5
20260509103821 71 0.0 0.0 0.00 0.02 0.02 99 1013.3
20260509102819 71 0.0 0.0 0.00 0.02 0.02 99 1013.0
20260509101826 71 0.0 0.0 0.01 0.02 0.02 99 1012.8
20260509100826 71 0.0 0.0 0.01 0.02 0.02 99 1012.7
20260509095830 71 0.0 0.0 0.02 0.02 0.02 99 1012.6
20260509094828 71 0.0 0.0 0.02 0.02 0.02 99 1012.3
20260509093846 72 0.0 0.0 0.02 0.02 0.02 99 1012.2
20260509092826 72 0.0 0.0 0.02 0.02 0.02 99 1012.3
20260509091902 72 0.0 0.0 0.01 0.01 0.01 99 1012.3
20260509090840 72 0.0 0.0 0.01 0.01 0.01 99 1012.2
20260509085856 72 0.0 0.0 0.00 0.00 0.00 99 1012.1
20260509084853 72 0.0 0.0 0.00 0.00 0.00 99 1012.3
20260509083831 72 0.0 0.0 0.00 0.00 0.00 99 1012.3
20260509082829 72 0.0 0.0 0.00 0.00 0.00 99 1012.3
20260509081826 72 0.0 0.0 0.00 0.00 0.00 99 1012.3
20260509080826 72 0.0 0.0 0.00 0.00 0.00 99 1012.2
20260509075822 72 0.0 0.0 0.00 0.00 0.00 99 1012.3
20260509074820 72 0.0 0.0 0.00 0.00 0.00 99 1012.2
20260509073836 72 0.0 0.0 0.00 0.00 0.00 99 1012.0
20260509072826 72 0.0 0.0 0.00 0.00 0.00 99 1012.1
20260509071826 72 0.0 0.0 0.00 0.00 0.00 99 1012.2
20260509070846 72 0.0 0.0 0.00 0.00 0.00 99 1012.4
20260509065827 72 0.0 0.0 0.00 0.00 0.00 99 1012.4
20260509064825 72 0.0 0.0 0.00 0.00 0.00 99 1012.5
20260509063822 72 0.0 0.0 0.00 0.00 0.00 99 1012.0
20260509062820 72 0.0 0.0 0.00 0.00 0.00 99 1011.9
20260509061826 72 0.0 0.0 0.00 0.00 0.00 99 1011.9